| time (UTC) | temp C | wind direction | speed KPH | gust KPH | rain 1hr cm | rain 24hr cm | rain mn cm | humidity % | barometer mb |
| 20260505125038 | 12 | 224 | 3.2 | 12.9 | 0.00 | 0.00 | 0.00 | 90 | 1012.7 |
| 20260505124512 | 12 | 209 | 4.8 | 12.9 | 0.00 | 0.00 | 0.00 | 90 | 1012.7 |
| 20260505124053 | 12 | 203 | 3.2 | 14.5 | 0.00 | 0.00 | 0.00 | 90 | 1012.6 |
| 20260505123506 | 12 | 215 | 6.4 | 14.5 | 0.00 | 0.00 | 0.00 | 90 | 1012.8 |
| 20260505123028 | 12 | 205 | 6.4 | 14.5 | 0.00 | 0.00 | 0.00 | 90 | 1012.7 |
| 20260505122501 | 12 | 217 | 8.0 | 14.5 | 0.00 | 0.00 | 0.00 | 90 | 1012.9 |
| 20260505122046 | 12 | 221 | 4.8 | 14.5 | 0.00 | 0.00 | 0.00 | 90 | 1012.7 |
| 20260505121540 | 12 | 204 | 4.8 | 11.3 | 0.00 | 0.00 | 0.00 | 90 | 1012.6 |
| 20260505121042 | 12 | 228 | 0.0 | 6.4 | 0.00 | 0.00 | 0.00 | 90 | 1012.6 |
| 20260505120608 | 12 | 207 | 0.0 | 9.7 | 0.00 | 0.00 | 0.00 | 90 | 1012.5 |
| 20260505120054 | 11 | 212 | 1.6 | 11.3 | 0.00 | 0.00 | 0.00 | 90 | 1012.6 |
| 20260505115611 | 11 | 219 | 3.2 | 9.7 | 0.00 | 0.00 | 0.00 | 90 | 1012.7 |
| 20260505115043 | 11 | 203 | 1.6 | 9.7 | 0.00 | 0.00 | 0.00 | 90 | 1012.8 |
| 20260505114518 | 11 | 214 | 0.0 | 6.4 | 0.00 | 0.00 | 0.00 | 90 | 1012.8 |
| 20260505114040 | 11 | 215 | 0.0 | 6.4 | 0.00 | 0.00 | 0.00 | 90 | 1012.7 |
| 20260505113502 | 11 | 213 | 0.0 | 6.4 | 0.00 | 0.00 | 0.00 | 90 | 1012.7 |
| 20260505113051 | 11 | 221 | 0.0 | 6.4 | 0.00 | 0.00 | 0.00 | 91 | 1012.7 |
| 20260505112524 | 11 | 212 | 0.0 | 4.8 | 0.00 | 0.00 | 0.00 | 91 | 1012.7 |
| 20260505112047 | 11 | 214 | 0.0 | 9.7 | 0.00 | 0.00 | 0.00 | 91 | 1012.7 |
| 20260505111540 | 11 | 217 | 0.0 | 9.7 | 0.00 | 0.00 | 0.00 | 91 | 1012.7 |
| 20260505111101 | 11 | 202 | 0.0 | 4.8 | 0.00 | 0.00 | 0.00 | 91 | 1012.6 |
| 20260505110527 | 11 | 221 | 0.0 | 8.0 | 0.00 | 0.00 | 0.00 | 91 | 1012.6 |
| 20260505102105 | 10 | 210 | 1.6 | 12.9 | 0.00 | 0.00 | 0.00 | 91 | 1012.6 |
| 20260505101515 | 10 | 221 | 1.6 | 11.3 | 0.00 | 0.00 | 0.00 | 91 | 1012.5 |
| 20260505101150 | 10 | 216 | 1.6 | 11.3 | 0.00 | 0.00 | 0.00 | 91 | 1012.5 |
| 20260505100513 | 10 | 184 | 0.0 | 9.7 | 0.00 | 0.00 | 0.00 | 91 | 1012.5 |
| 20260505100058 | 10 | 210 | 0.0 | 9.7 | 0.00 | 0.00 | 0.00 | 91 | 1012.4 |
| 20260505095550 | 10 | 205 | 1.6 | 9.7 | 0.00 | 0.00 | 0.00 | 92 | 1012.4 |
| 20260505095037 | 10 | 201 | 0.0 | 4.8 | 0.00 | 0.00 | 0.00 | 92 | 1012.2 |
| 20260505094533 | 10 | 217 | 0.0 | 1.6 | 0.00 | 0.00 | 0.00 | 92 | 1012.1 |
| 20260505094056 | 10 | 207 | 0.0 | 1.6 | 0.00 | 0.00 | 0.00 | 92 | 1012.2 |
| 20260505093533 | 10 | 178 | 0.0 | 1.6 | 0.00 | 0.00 | 0.00 | 92 | 1012.1 |
| 20260505093057 | 10 | 216 | 0.0 | 1.6 | 0.00 | 0.00 | 0.00 | 91 | 1012.2 |
| 20260505092510 | 10 | 207 | 0.0 | 6.4 | 0.00 | 0.00 | 0.00 | 91 | 1012.2 |
| 20260505092034 | 11 | 214 | 0.0 | 6.4 | 0.00 | 0.00 | 0.00 | 91 | 1012.1 |
| 20260505091511 | 11 | 210 | 1.6 | 8.0 | 0.00 | 0.00 | 0.00 | 91 | 1012.2 |
| 20260505091056 | 11 | 217 | 0.0 | 9.7 | 0.00 | 0.00 | 0.00 | 91 | 1012.1 |
| 20260505090541 | 11 | 210 | 3.2 | 11.3 | 0.00 | 0.00 | 0.00 | 91 | 1012.1 |
| 20260505090024 | 11 | 221 | 1.6 | 11.3 | 0.00 | 0.00 | 0.00 | 91 | 1012.0 |
| 20260505085512 | 11 | 211 | 1.6 | 12.9 | 0.00 | 0.00 | 0.00 | 91 | 1012.0 |
| 20260505085051 | 11 | 208 | 3.2 | 12.9 | 0.00 | 0.00 | 0.00 | 91 | 1012.0 |
| 20260505084552 | 11 | 223 | 6.4 | 14.5 | 0.00 | 0.00 | 0.00 | 91 | 1012.0 |
| 20260505084018 | 11 | 217 | 8.0 | 14.5 | 0.00 | 0.00 | 0.00 | 91 | 1012.0 |
| 20260505083541 | 11 | 224 | 4.8 | 12.9 | 0.00 | 0.00 | 0.00 | 91 | 1012.0 |
| 20260505083030 | 11 | 205 | 0.0 | 0.0 | 0.00 | 0.00 | 0.00 | 91 | 1012.1 |
| 20260505082606 | 11 | 227 | 0.0 | 6.4 | 0.00 | 0.00 | 0.00 | 91 | 1012.2 |
| 20260505082021 | 11 | 245 | 0.0 | 14.5 | 0.00 | 0.00 | 0.00 | 91 | 1012.2 |
| 20260505081555 | 11 | 217 | 1.6 | 16.1 | 0.00 | 0.00 | 0.00 | 91 | 1012.2 |
| 20260505081007 | 11 | 224 | 4.8 | 17.7 | 0.00 | 0.00 | 0.00 | 91 | 1012.2 |
| 20260505080549 | 11 | 229 | 3.2 | 20.9 | 0.00 | 0.00 | 0.00 | 91 | 1012.2 |
| 20260505080042 | 11 | 205 | 4.8 | 20.9 | 0.00 | 0.00 | 0.00 | 91 | 1012.3 |
| 20260505075523 | 11 | 242 | 4.8 | 17.7 | 0.00 | 0.00 | 0.00 | 91 | 1012.2 |
| 20260505075001 | 11 | 222 | 3.2 | 17.7 | 0.00 | 0.00 | 0.00 | 91 | 1012.2 |
| 20260505074541 | 11 | 226 | 6.4 | 22.5 | 0.00 | 0.00 | 0.00 | 91 | 1012.3 |
| 20260505074007 | 11 | 226 | 8.0 | 22.5 | 0.00 | 0.00 | 0.00 | 91 | 1012.2 |
| 20260505073604 | 11 | 249 | 4.8 | 20.9 | 0.00 | 0.00 | 0.00 | 91 | 1012.2 |
| 20260505073034 | 11 | 223 | 11.3 | 20.9 | 0.00 | 0.00 | 0.00 | 91 | 1012.2 |
| 20260505072501 | 11 | 233 | 8.0 | 17.7 | 0.00 | 0.00 | 0.00 | 91 | 1012.2 |
| 20260505072029 | 11 | 217 | 4.8 | 19.3 | 0.00 | 0.00 | 0.00 | 91 | 1012.2 |
| 20260505071515 | 11 | 229 | 3.2 | 19.3 | 0.00 | 0.00 | 0.00 | 91 | 1012.1 |
| 20260505071052 | 11 | 219 | 3.2 | 16.1 | 0.00 | 0.00 | 0.00 | 91 | 1012.3 |
| 20260505070533 | 11 | 206 | 4.8 | 17.7 | 0.00 | 0.00 | 0.00 | 91 | 1012.2 |
| 20260505070009 | 11 | 229 | 8.0 | 17.7 | 0.00 | 0.00 | 0.00 | 91 | 1012.1 |
| 20260505065557 | 11 | 219 | 6.4 | 19.3 | 0.00 | 0.00 | 0.00 | 91 | 1012.1 |
| 20260505065012 | 11 | 218 | 9.7 | 19.3 | 0.00 | 0.00 | 0.00 | 91 | 1012.1 |
| 20260505064536 | 11 | 224 | 9.7 | 17.7 | 0.00 | 0.00 | 0.00 | 91 | 1012.1 |
| 20260505064006 | 11 | 219 | 8.0 | 20.9 | 0.00 | 0.00 | 0.00 | 91 | 1012.1 |
| 20260505063552 | 11 | 231 | 6.4 | 20.9 | 0.00 | 0.00 | 0.00 | 91 | 1012.1 |
| 20260505063011 | 11 | 245 | 3.2 | 16.1 | 0.00 | 0.00 | 0.00 | 91 | 1012.1 |
| 20260505062537 | 11 | 243 | 3.2 | 17.7 | 0.00 | 0.00 | 0.00 | 91 | 1012.0 |
| 20260505062006 | 11 | 240 | 8.0 | 17.7 | 0.00 | 0.00 | 0.00 | 91 | 1012.2 |
| 20260505061600 | 11 | 243 | 4.8 | 17.7 | 0.00 | 0.00 | 0.00 | 91 | 1012.2 |
| 20260505061030 | 11 | 226 | 1.6 | 12.9 | 0.00 | 0.00 | 0.00 | 91 | 1012.2 |
| 20260505060517 | 11 | 236 | 4.8 | 16.1 | 0.00 | 0.00 | 0.00 | 91 | 1012.2 |
| 20260505060004 | 11 | 231 | 8.0 | 20.9 | 0.00 | 0.00 | 0.00 | 91 | 1012.2 |
| 20260505055552 | 11 | 234 | 8.0 | 20.9 | 0.00 | 0.00 | 0.00 | 91 | 1012.1 |
| 20260505055020 | 11 | 207 | 8.0 | 22.5 | 0.00 | 0.00 | 0.00 | 91 | 1012.1 |
| 20260505054501 | 11 | 231 | 8.0 | 22.5 | 0.00 | 0.00 | 0.00 | 91 | 1012.2 |
| 20260505054041 | 11 | 210 | 6.4 | 20.9 | 0.00 | 0.00 | 0.00 | 91 | 1012.2 |
| 20260505053535 | 11 | 226 | 9.7 | 19.3 | 0.00 | 0.00 | 0.00 | 91 | 1012.1 |
| 20260505053008 | 11 | 218 | 6.4 | 17.7 | 0.00 | 0.00 | 0.00 | 91 | 1012.1 |
| 20260505052554 | 11 | 228 | 4.8 | 17.7 | 0.00 | 0.00 | 0.00 | 91 | 1012.2 |
| 20260505052006 | 11 | 233 | 8.0 | 16.1 | 0.00 | 0.00 | 0.00 | 91 | 1012.2 |
| 20260505051547 | 11 | 250 | 0.0 | 14.5 | 0.00 | 0.00 | 0.00 | 91 | 1012.3 |
| 20260505051006 | 11 | 247 | 1.6 | 16.1 | 0.00 | 0.00 | 0.00 | 91 | 1012.2 |
| 20260505050553 | 11 | 240 | 6.4 | 17.7 | 0.00 | 0.00 | 0.00 | 91 | 1012.2 |
| 20260505041514 | 11 | 224 | 8.0 | 22.5 | 0.00 | 0.00 | 0.00 | 90 | 1012.6 |
| 20260505041024 | 11 | 229 | 9.7 | 22.5 | 0.00 | 0.00 | 0.00 | 90 | 1012.6 |
| 20260505040526 | 11 | 229 | 6.4 | 19.3 | 0.00 | 0.00 | 0.00 | 90 | 1012.7 |
| 20260505040011 | 11 | 221 | 8.0 | 19.3 | 0.00 | 0.00 | 0.00 | 89 | 1012.7 |
| 20260505035556 | 11 | 229 | 4.8 | 25.7 | 0.00 | 0.00 | 0.00 | 89 | 1012.7 |
| 20260505035039 | 11 | 225 | 6.4 | 25.7 | 0.00 | 0.00 | 0.00 | 89 | 1012.7 |
| 20260505034519 | 11 | 218 | 11.3 | 24.1 | 0.00 | 0.00 | 0.00 | 89 | 1012.7 |
| 20260505034058 | 11 | 234 | 9.7 | 24.1 | 0.00 | 0.00 | 0.00 | 89 | 1012.8 |
| 20260505033520 | 11 | 222 | 9.7 | 24.1 | 0.00 | 0.00 | 0.00 | 89 | 1012.8 |
| 20260505033102 | 11 | 224 | 8.0 | 25.7 | 0.00 | 0.00 | 0.00 | 89 | 1012.8 |
| 20260505032542 | 11 | 214 | 11.3 | 25.7 | 0.00 | 0.00 | 0.00 | 89 | 1012.8 |
| 20260505032014 | 11 | 211 | 8.0 | 22.5 | 0.00 | 0.00 | 0.00 | 88 | 1012.7 |
| 20260505031534 | 11 | 223 | 6.4 | 20.9 | 0.00 | 0.00 | 0.00 | 88 | 1012.6 |
| 20260505031018 | 11 | 231 | 4.8 | 20.9 | 0.00 | 0.00 | 0.00 | 88 | 1012.7 |
| 20260505030504 | 11 | 229 | 8.0 | 20.9 | 0.00 | 0.00 | 0.00 | 88 | 1012.7 |
| 20260505030026 | 11 | 229 | 4.8 | 24.1 | 0.00 | 0.00 | 0.00 | 88 | 1012.7 |
| 20260505025515 | 11 | 243 | 8.0 | 24.1 | 0.00 | 0.00 | 0.00 | 88 | 1012.8 |
| 20260505025055 | 11 | 229 | 4.8 | 17.7 | 0.00 | 0.00 | 0.00 | 88 | 1012.8 |
| 20260505024529 | 11 | 219 | 6.4 | 22.5 | 0.00 | 0.00 | 0.00 | 87 | 1012.8 |
| 20260505024018 | 11 | 223 | 3.2 | 20.9 | 0.00 | 0.00 | 0.00 | 87 | 1012.7 |
| 20260505023547 | 11 | 237 | 8.0 | 20.9 | 0.00 | 0.00 | 0.00 | 87 | 1012.7 |
| 20260505023005 | 11 | 233 | 6.4 | 20.9 | 0.00 | 0.00 | 0.00 | 87 | 1012.7 |
| 20260505022602 | 11 | 243 | 9.7 | 19.3 | 0.00 | 0.00 | 0.00 | 87 | 1012.8 |
| 20260505022033 | 11 | 227 | 3.2 | 24.1 | 0.00 | 0.00 | 0.00 | 86 | 1012.7 |
| 20260505021531 | 11 | 246 | 4.8 | 22.5 | 0.00 | 0.00 | 0.00 | 86 | 1012.7 |
| 20260505021051 | 11 | 217 | 8.0 | 22.5 | 0.00 | 0.00 | 0.00 | 86 | 1012.7 |
| 20260505020513 | 11 | 233 | 11.3 | 24.1 | 0.00 | 0.00 | 0.00 | 86 | 1012.6 |
| 20260505020009 | 11 | 217 | 8.0 | 24.1 | 0.00 | 0.00 | 0.00 | 86 | 1012.6 |
| 20260505015538 | 11 | 217 | 8.0 | 25.7 | 0.00 | 0.00 | 0.00 | 85 | 1012.5 |
| 20260505015058 | 11 | 239 | 3.2 | 25.7 | 0.00 | 0.00 | 0.00 | 86 | 1012.5 |
| 20260505014601 | 11 | 230 | 11.3 | 24.1 | 0.00 | 0.00 | 0.00 | 86 | 1012.4 |
| 20260505014013 | 11 | 209 | 8.0 | 24.1 | 0.00 | 0.00 | 0.00 | 86 | 1012.3 |
| 20260505013557 | 11 | 213 | 6.4 | 20.9 | 0.00 | 0.00 | 0.00 | 86 | 1012.3 |
| 20260505013052 | 11 | 219 | 6.4 | 25.7 | 0.00 | 0.00 | 0.00 | 86 | 1012.2 |
| 20260505012520 | 11 | 240 | 12.9 | 25.7 | 0.00 | 0.00 | 0.00 | 86 | 1012.1 |
| 20260505012011 | 11 | 238 | 8.0 | 22.5 | 0.00 | 0.00 | 0.00 | 86 | 1012.1 |
| 20260505011556 | 11 | 226 | 8.0 | 24.1 | 0.00 | 0.00 | 0.00 | 87 | 1012.1 |
| 20260505011049 | 11 | 233 | 12.9 | 24.1 | 0.00 | 0.00 | 0.00 | 87 | 1012.0 |
| 20260505010520 | 11 | 246 | 6.4 | 24.1 | 0.00 | 0.00 | 0.00 | 87 | 1011.9 |
| 20260505005531 | 11 | 226 | 3.2 | 17.7 | 0.00 | 0.00 | 0.00 | 87 | 1011.9 |
| 20260505005108 | 11 | 229 | 3.2 | 17.7 | 0.00 | 0.00 | 0.00 | 87 | 1011.7 |
| 20260505004551 | 11 | 231 | 4.8 | 20.9 | 0.00 | 0.00 | 0.00 | 87 | 1011.7 |
| 20260505004021 | 11 | 214 | 4.8 | 19.3 | 0.00 | 0.00 | 0.00 | 87 | 1011.6 |
| 20260505003559 | 11 | 223 | 8.0 | 19.3 | 0.00 | 0.00 | 0.00 | 86 | 1011.5 |
| 20260505003051 | 11 | 250 | 6.4 | 24.1 | 0.00 | 0.00 | 0.00 | 86 | 1011.4 |
| 20260505002553 | 11 | 213 | 3.2 | 20.9 | 0.00 | 0.00 | 0.00 | 87 | 1011.3 |
| 20260505002004 | 11 | 239 | 6.4 | 17.7 | 0.00 | 0.00 | 0.00 | 86 | 1011.2 |
| 20260505001548 | 11 | 238 | 3.2 | 20.9 | 0.00 | 0.00 | 0.00 | 86 | 1011.2 |
| 20260505001021 | 11 | 221 | 8.0 | 25.7 | 0.00 | 0.00 | 0.00 | 86 | 1011.1 |
| 20260505000542 | 11 | 231 | 3.2 | 25.7 | 0.00 | 0.00 | 0.00 | 86 | 1011.0 |
| 20260505000035 | 11 | 219 | 11.3 | 25.7 | 0.00 | 0.00 | 0.00 | 85 | 1010.9 |
| 20260504235600 | 11 | 220 | 8.0 | 25.7 | 0.00 | 0.00 | 0.00 | 85 | 1010.9 |
| 20260504235034 | 11 | 230 | 9.7 | 20.9 | 0.00 | 0.00 | 0.00 | 85 | 1010.9 |
| 20260504234605 | 11 | 233 | 4.8 | 24.1 | 0.00 | 0.00 | 0.00 | 85 | 1010.9 |
| 20260504234007 | 11 | 237 | 9.7 | 24.1 | 0.00 | 0.00 | 0.00 | 84 | 1010.7 |
| 20260504233553 | 11 | 227 | 6.4 | 19.3 | 0.00 | 0.00 | 0.00 | 84 | 1010.7 |
| 20260504233013 | 11 | 219 | 6.4 | 20.9 | 0.00 | 0.00 | 0.00 | 84 | 1010.7 |
| 20260504232557 | 11 | 221 | 6.4 | 30.6 | 0.00 | 0.00 | 0.00 | 84 | 1010.6 |
| 20260504232038 | 11 | 234 | 11.3 | 25.7 | 0.00 | 0.00 | 0.00 | 84 | 1010.6 |
| 20260504231559 | 11 | 237 | 11.3 | 25.7 | 0.00 | 0.00 | 0.00 | 84 | 1010.5 |
| 20260504231027 | 11 | 201 | 12.9 | 30.6 | 0.00 | 0.00 | 0.00 | 84 | 1010.4 |
| 20260504230519 | 11 | 223 | 16.1 | 30.6 | 0.00 | 0.00 | 0.00 | 83 | 1010.4 |
| 20260504230046 | 11 | 217 | 14.5 | 29.0 | 0.00 | 0.00 | 0.00 | 83 | 1010.3 |
| 20260504225519 | 11 | 227 | 12.9 | 32.2 | 0.00 | 0.00 | 0.00 | 83 | 1010.3 |
| 20260504225105 | 11 | 221 | 16.1 | 37.0 | 0.00 | 0.00 | 0.00 | 83 | 1010.2 |
| 20260504224521 | 11 | 238 | 17.7 | 37.0 | 0.00 | 0.00 | 0.00 | 83 | 1010.3 |
| 20260504224016 | 11 | 224 | 17.7 | 38.6 | 0.00 | 0.00 | 0.00 | 83 | 1010.3 |
| 20260504223545 | 11 | 217 | 20.9 | 38.6 | 0.00 | 0.00 | 0.00 | 83 | 1010.2 |
| 20260504223125 | 11 | 238 | 20.9 | 35.4 | 0.00 | 0.00 | 0.00 | 83 | 1010.2 |
| 20260504222540 | 11 | 237 | 22.5 | 37.0 | 0.00 | 0.00 | 0.00 | 83 | 1010.4 |
| 20260504222100 | 11 | 202 | 20.9 | 38.6 | 0.00 | 0.00 | 0.00 | 83 | 1010.3 |
| 20260504221510 | 12 | 210 | 22.5 | 38.6 | 0.00 | 0.00 | 0.00 | 82 | 1010.3 |
| 20260504221054 | 12 | 249 | 19.3 | 35.4 | 0.00 | 0.00 | 0.00 | 82 | 1010.3 |
| 20260504220504 | 12 | 218 | 20.9 | 33.8 | 0.00 | 0.00 | 0.00 | 82 | 1010.3 |
| 20260504220024 | 12 | 217 | 22.5 | 35.4 | 0.00 | 0.00 | 0.00 | 82 | 1010.5 |
| 20260504215552 | 12 | 222 | 20.9 | 37.0 | 0.00 | 0.00 | 0.00 | 82 | 1010.5 |
| 20260504215022 | 12 | 232 | 20.9 | 33.8 | 0.00 | 0.00 | 0.00 | 83 | 1010.5 |
| 20260504214538 | 12 | 211 | 16.1 | 32.2 | 0.00 | 0.00 | 0.00 | 84 | 1010.5 |
| 20260504214014 | 12 | 217 | 19.3 | 35.4 | 0.00 | 0.00 | 0.00 | 83 | 1010.6 |
| 20260504213537 | 12 | 222 | 19.3 | 35.4 | 0.00 | 0.00 | 0.00 | 83 | 1010.6 |
| 20260504213013 | 12 | 212 | 20.9 | 33.8 | 0.00 | 0.00 | 0.00 | 83 | 1010.6 |
| 20260504212526 | 12 | 217 | 24.1 | 33.8 | 0.00 | 0.00 | 0.00 | 82 | 1010.5 |
| 20260504212050 | 12 | 223 | 22.5 | 33.8 | 0.00 | 0.00 | 0.00 | 82 | 1010.5 |
| 20260504211534 | 12 | 226 | 24.1 | 35.4 | 0.00 | 0.00 | 0.00 | 82 | 1010.5 |
| 20260504211104 | 12 | 219 | 24.1 | 35.4 | 0.00 | 0.00 | 0.00 | 83 | 1010.5 |
| 20260504210513 | 12 | 221 | 17.7 | 35.4 | 0.00 | 0.00 | 0.00 | 83 | 1010.4 |
| 20260504210036 | 12 | 219 | 22.5 | 35.4 | 0.00 | 0.00 | 0.00 | 83 | 1010.4 |
| 20260504205554 | 12 | 234 | 20.9 | 37.0 | 0.00 | 0.00 | 0.00 | 83 | 1010.4 |
| 20260504205048 | 12 | 228 | 22.5 | 37.0 | 0.00 | 0.00 | 0.00 | 83 | 1010.4 |
| 20260504204507 | 11 | 215 | 22.5 | 37.0 | 0.00 | 0.00 | 0.00 | 84 | 1010.3 |
| 20260504204053 | 12 | 225 | 20.9 | 37.0 | 0.00 | 0.00 | 0.00 | 84 | 1010.3 |
| 20260504203507 | 11 | 232 | 25.7 | 38.6 | 0.00 | 0.00 | 0.00 | 84 | 1010.1 |
| 20260504203156 | 11 | 215 | 24.1 | 38.6 | 0.00 | 0.00 | 0.00 | 84 | 1010.1 |
| 20260504202531 | 12 | 219 | 24.1 | 40.2 | 0.00 | 0.00 | 0.00 | 84 | 1010.1 |
| 20260504202100 | 11 | 224 | 29.0 | 40.2 | 0.00 | 0.00 | 0.00 | 84 | 1010.3 |
| 20260504201534 | 12 | 213 | 24.1 | 41.8 | 0.00 | 0.00 | 0.00 | 84 | 1010.1 |
| 20260504201054 | 11 | 235 | 25.7 | 41.8 | 0.00 | 0.00 | 0.00 | 84 | 1010.1 |
| 20260504200504 | 12 | 226 | 25.7 | 38.6 | 0.00 | 0.00 | 0.00 | 84 | 1010.1 |
| 20260504200024 | 12 | 210 | 25.7 | 40.2 | 0.00 | 0.00 | 0.00 | 84 | 1010.2 |
| 20260504195545 | 12 | 229 | 29.0 | 40.2 | 0.00 | 0.00 | 0.00 | 84 | 1010.1 |
| 20260504195029 | 12 | 208 | 29.0 | 40.2 | 0.00 | 0.00 | 0.00 | 84 | 1010.1 |
| 20260504194559 | 12 | 198 | 24.1 | 35.4 | 0.00 | 0.00 | 0.00 | 84 | 1010.0 |
| 20260504194008 | 12 | 222 | 24.1 | 35.4 | 0.00 | 0.00 | 0.00 | 84 | 1010.1 |
| 20260504193528 | 12 | 231 | 22.5 | 35.4 | 0.00 | 0.00 | 0.00 | 83 | 1010.1 |
| 20260504193049 | 12 | 232 | 22.5 | 35.4 | 0.00 | 0.00 | 0.00 | 84 | 1010.1 |
| 20260504192608 | 12 | 234 | 25.7 | 35.4 | 0.00 | 0.00 | 0.00 | 84 | 1010.1 |
| 20260504192017 | 12 | 223 | 24.1 | 37.0 | 0.00 | 0.00 | 0.00 | 84 | 1010.3 |
| 20260504191612 | 12 | 228 | 24.1 | 37.0 | 0.00 | 0.00 | 0.00 | 84 | 1010.2 |
| 20260504191008 | 12 | 217 | 24.1 | 37.0 | 0.00 | 0.00 | 0.00 | 84 | 1010.2 |
| 20260504190551 | 12 | 218 | 24.1 | 40.2 | 0.00 | 0.00 | 0.00 | 84 | 1010.3 |
| 20260504190016 | 12 | 219 | 27.4 | 43.5 | 0.00 | 0.00 | 0.00 | 84 | 1010.3 |
| 20260504185535 | 12 | 214 | 27.4 | 41.8 | 0.00 | 0.00 | 0.00 | 84 | 1010.3 |
| 20260504185058 | 12 | 212 | 27.4 | 40.2 | 0.00 | 0.00 | 0.00 | 85 | 1010.3 |
| 20260504184506 | 12 | 231 | 25.7 | 40.2 | 0.00 | 0.00 | 0.00 | 85 | 1010.2 |
| 20260504184026 | 11 | 219 | 25.7 | 38.6 | 0.00 | 0.00 | 0.00 | 86 | 1010.2 |
| 20260504183555 | 11 | 226 | 25.7 | 40.2 | 0.00 | 0.00 | 0.00 | 86 | 1010.2 |
| 20260504183020 | 12 | 226 | 27.4 | 38.6 | 0.00 | 0.00 | 0.00 | 85 | 1010.1 |
| 20260504182502 | 12 | 238 | 27.4 | 40.2 | 0.00 | 0.00 | 0.00 | 85 | 1010.0 |
| 20260504182031 | 12 | 211 | 27.4 | 40.2 | 0.00 | 0.00 | 0.00 | 85 | 1009.9 |
| 20260504181600 | 12 | 215 | 27.4 | 41.8 | 0.00 | 0.00 | 0.00 | 85 | 1009.9 |
| 20260504181026 | 12 | 206 | 29.0 | 41.8 | 0.00 | 0.00 | 0.00 | 84 | 1010.0 |
| 20260504180610 | 12 | 221 | 25.7 | 37.0 | 0.00 | 0.00 | 0.00 | 84 | 1010.1 |
| 20260504180038 | 12 | 216 | 25.7 | 37.0 | 0.00 | 0.00 | 0.00 | 84 | 1010.1 |
| 20260504175532 | 12 | 236 | 24.1 | 38.6 | 0.00 | 0.05 | 0.00 | 82 | 1010.3 |
| 20260504175103 | 12 | 219 | 27.4 | 38.6 | 0.00 | 0.05 | 0.00 | 82 | 1010.3 |
| 20260504174512 | 12 | 212 | 24.1 | 37.0 | 0.00 | 0.05 | 0.00 | 82 | 1010.3 |
| 20260504174038 | 12 | 218 | 24.1 | 35.4 | 0.00 | 0.05 | 0.00 | 82 | 1010.3 |
| 20260504173524 | 12 | 214 | 24.1 | 35.4 | 0.00 | 0.05 | 0.00 | 83 | 1010.2 |
| 20260504173002 | 12 | 224 | 24.1 | 35.4 | 0.00 | 0.05 | 0.00 | 82 | 1010.2 |
| 20260504172522 | 12 | 215 | 22.5 | 35.4 | 0.00 | 0.05 | 0.00 | 82 | 1010.2 |
| 20260504172042 | 12 | 217 | 22.5 | 35.4 | 0.00 | 0.05 | 0.00 | 82 | 1010.3 |
| 20260504171516 | 12 | 227 | 19.3 | 38.6 | 0.00 | 0.05 | 0.00 | 82 | 1010.5 |
| 20260504171100 | 12 | 215 | 25.7 | 38.6 | 0.00 | 0.05 | 0.00 | 82 | 1010.4 |
| 20260504170510 | 12 | 215 | 20.9 | 32.2 | 0.00 | 0.05 | 0.00 | 82 | 1010.4 |
| 20260504170140 | 12 | 228 | 19.3 | 32.2 | 0.00 | 0.05 | 0.00 | 82 | 1010.5 |
| 20260504151015 | 13 | 240 | 11.3 | 22.5 | 0.00 | 0.36 | 0.00 | 72 | 1011.2 |
| 20260504150510 | 12 | 222 | 6.4 | 20.9 | 0.00 | 0.36 | 0.00 | 76 | 1011.2 |
| 20260504141048 | 12 | 218 | 12.9 | 24.1 | 0.00 | 0.36 | 0.00 | 73 | 1011.4 |
| 20260504140609 | 12 | 205 | 9.7 | 24.1 | 0.00 | 0.36 | 0.00 | 74 | 1011.5 |